[[{"header":{"parameterUnit":"m.s-1","parameterCategory":1,"la1":30.2991,"la2":30.254,"lo1":-89.0895,"lo2":-89.0444,"dy":0.0017,"dx":0.0017,"nx":28,"ny":28,"refTime":"2024-10-17T21:00:00:Z","depth":0,"parameterNumber":2,"parameterNumberName":"U-component_of_WINDS"},"data":[0,0,0,0,0,0,0,0,0,0,0,0,0,0,0,0,0,0,0,0,0,0,0,0,0,0,0,0,0,0,0,0,0,0,0,0,0,0,0,0,0,0,0,0,0,0,0,0,0,0,0,0,0,0,0,0,0,0,-4.6666,-4.6667,0,-4.6726,-4.6727,-4.6728,-4.6526,-4.652,-4.6514,-4.6508,-4.6576,-4.6583,-4.659,0,0,0,0,0,0,0,0,0,0,0,0,0,-4.6379,-4.6385,-4.6666,-4.6667,-4.6667,-4.6726,-4.6727,-4.6728,-4.6527,-4.652,-4.6512,-4.6506,-4.6573,-4.6582,-4.6591,0,0,0,0,0,0,0,0,0,0,0,0,0,-4.6478,-4.6388,-4.6666,-4.6574,-4.6567,-4.6726,-4.6727,-4.6728,-4.6529,-4.652,-4.6511,-4.6502,-4.657,-4.6581,-4.6592,-4.6845,0,0,-4.6627,-4.6631,0,0,0,0,0,0,0,0,-4.6473,-4.6489,-4.6587,-4.6581,-4.6573,-4.6609,-4.665,-4.6768,-4.6531,-4.6544,-4.6508,-4.6498,-4.6595,-4.6603,-4.6635,-4.6848,-4.6851,-4.6628,-4.6634,-4.6639,-4.6642,0,0,0,0,0,0,0,-4.6466,-4.6485,-4.669,-4.6589,-4.658,-4.6531,-4.6535,-4.6672,-4.662,-4.6542,-4.6527,-4.6537,-4.6589,-4.6625,-4.6635,-4.6852,-4.6627,-4.6637,-4.6644,-4.6648,-4.7272,-4.7281,0,0,0,0,0,0,-4.6471,-4.6481,-4.6688,-4.6692,-4.6499,-4.6544,-4.6548,-4.6607,-4.6618,-4.661,-4.6545,-4.6527,-4.661,-4.6622,-4.6637,-4.6931,-4.6639,-4.665,-4.6656,-4.7262,-4.7274,-4.7285,0,0,0,0,0,0,-4.6466,-4.6491,-4.6685,-4.6582,-4.6603,-4.6558,-4.6626,-4.6613,-4.6648,-4.662,-4.661,-4.659,-4.6603,-4.6621,-4.6793,-4.693,-4.6655,-4.6665,-4.7251,-4.7266,-4.728,-4.7523,0,0,0,0,0,0,-4.6458,-4.6491,-4.6586,-4.6586,-4.661,-4.6841,-4.6634,-4.6621,-4.6667,-4.6645,-4.666,-4.6654,-4.6597,-4.6778,-4.6805,-4.6941,-4.6674,-4.7238,-4.7257,-4.7275,-4.7503,-4.7544,-4.758,0,0,0,0,0,-4.6449,-4.6653,-4.6591,-4.6618,-4.6727,-4.685,-4.6863,-4.6792,-4.6679,-4.6774,-4.6756,-4.6653,-4.6911,-4.6797,-4.6826,-4.6967,-4.7229,-4.7252,-4.7273,-4.7485,-4.7536,-4.7579,0,0,0,0,0,0,-4.6673,-4.6652,-4.6583,-4.6794,-4.6825,-4.6815,-4.6933,-4.6849,-4.6914,-4.6891,-4.6802,-4.6807,-4.6996,-4.6999,-4.6872,-4.7211,-4.7051,-4.708,-4.7202,-4.725,-4.7288,-4.7283,-4.6683,0,0,0,0,0,-4.6746,-4.6846,-4.6823,-4.7011,-4.703,-4.698,-4.703,-4.6973,-4.7002,-4.7015,-4.7009,-4.7042,-4.713,-4.719,-4.727,-4.7502,-4.7502,-4.7613,-4.7652,-4.7684,-4.771,-4.7831,-4.788,-4.7358,-4.7357,-4.7357,0,0,-4.69,-4.6901,-4.697,-4.7056,-4.7073,-4.7179,-4.6992,-4.7113,-4.719,-4.7033,-4.7195,-4.7192,-4.7224,-4.7427,-4.7516,-4.7435,-4.7854,-4.7712,-4.7738,-4.7746,-4.7859,-4.7908,-4.7952,-4.7373,-4.737,-4.7367,0,0,-4.7233,-4.7245,-4.7401,-4.7422,-4.7449,-4.7414,-4.7452,-4.7455,-4.7446,-4.7607,-4.749,-4.7582,-4.7737,-4.7763,-4.7797,-4.8139,-4.8046,-4.8167,-4.8369,-4.8488,-4.853,-4.8566,-4.8686,-4.8731,-4.8193,-4.8194,-4.8194,0,-4.7421,-4.7575,-4.7493,-4.7621,-4.7662,-4.7522,-4.768,-4.7705,-4.7759,-4.779,-4.7699,-4.7887,-4.7899,-4.8105,-4.8188,-4.8221,-4.8261,-4.8165,-4.853,-4.8565,-4.8598,-4.8712,-4.8757,-4.8208,-4.8207,-4.8205,-4.8204,0,-4.7804,-4.7912,-4.8036,-4.8088,-4.8143,-4.8286,-4.8226,-4.8292,-4.823,-4.8204,-4.8369,-4.8377,-4.8455,-4.85,-4.8442,-4.8698,-4.8647,-4.8545,-4.8382,-4.8663,-4.8769,-4.8812,-4.8229,-4.8224,-4.8219,-4.8216,0,0,-4.8281,-4.8284,-4.8331,-4.8352,-4.8371,-4.8454,-4.859,-4.8664,-4.8721,-4.8763,-4.8875,-4.9007,-4.8911,-4.895,-4.8893,-4.8998,-4.9266,-4.8882,-4.8881,-4.8952,-4.9548,-4.9624,-4.9676,-4.9205,-4.9213,-4.9219,-4.9544,0,-4.8607,-4.8838,-4.8768,-4.9001,-4.9099,-4.8967,-4.9085,-4.9111,-4.9091,-4.9172,-4.915,-4.9244,-4.9112,-4.9134,-4.9232,-4.9213,-4.9384,-4.9189,-4.9308,-4.9314,-4.9303,-4.9731,-4.9812,-5.0118,-4.9585,-4.9592,-4.9597,0,-4.9019,-4.9074,-4.9316,-4.9317,-4.9355,-4.9463,-4.9524,-4.9603,-4.9629,-4.9607,-4.9649,-4.957,-4.9704,-4.9541,-4.9724,-4.9592,-4.9637,-4.9635,-4.9645,-4.9653,-4.9472,-4.9749,-5.0214,-5.026,-4.9662,-4.9657,-4.9652,0,-4.9341,-4.9476,-4.9637,-4.9659,-4.9665,-4.9743,-4.9749,-4.9765,-4.9814,-4.9868,-4.9898,-4.9969,-5.0007,-5.0064,-5.0006,-4.9893,-5.0197,-5.003,-5.0182,-5.0184,-5.0252,-5.0248,-5.073,-5.0284,-5.0283,-5.0282,-5.0281,0,-4.9712,-4.9865,-4.9781,-4.9881,-5.0048,-4.9966,-5.0134,-5.0125,-5.0141,-5.0236,-5.0128,-5.022,-5.0138,-5.0224,-5.018,-5.0337,-5.0356,-5.0342,-5.0328,-5.0351,-5.0353,-5.0378,-5.0355,-5.0294,-5.0292,-5.0289,-5.0287,0,-5.01,-5.005,-5.0216,-5.0207,-5.0208,-5.0332,-5.0323,-5.0415,-5.0386,-5.0509,-5.0533,-5.0489,-5.0583,-5.0531,-5.063,-5.0599,-5.0803,-5.0761,-5.0794,-5.0782,-5.0937,-5.0923,-5.1451,-5.1516,-5.103,-5.1035,-5.1039,0,-5.0339,-5.0453,-5.0455,-5.051,-5.0523,-5.0614,-5.0662,-5.0586,-5.064,-5.0677,-5.0765,-5.0849,-5.0912,-5.107,-5.1047,-5.1122,-5.108,-5.126,-5.109,-5.1109,-5.1081,-5.1074,-5.1084,-5.1294,-5.13,-5.1304,-5.1308,0,-5.0769,-5.0738,-5.081,-5.0875,-5.0934,-5.0981,-5.102,-5.1072,-5.0996,-5.1063,-5.1156,-5.1206,-5.1304,-5.139,-5.1453,-5.146,-5.1372,-5.1361,-5.14,-5.1424,-5.1438,-5.1431,-5.0886,-5.135,-5.1345,-5.1342,-5.134,-5.1338,-5.1088,-5.1183,-5.1198,-5.1282,-5.1302,-5.134,-5.1425,-5.1406,-5.1482,-5.1555,-5.1506,-5.1617,-5.1638,-5.1713,-5.1732,-5.1818,-5.1745,-5.1803,-5.1817,-5.1832,-5.1852,-5.1425,-5.1829,-5.1828,-5.1827,-5.1826,-5.1825,0,-5.1511,-5.1514,-5.1592,-5.1647,-5.1713,-5.1623,-5.166,-5.1722,-5.182,-5.1846,-5.191,-5.2018,-5.21,-5.2083,-5.2157,-5.2229,-5.2191,-5.2251,-5.2244,-5.2247,-5.1913,-5.1871,-5.2281,-5.2281,-5.2281,-5.2281,-5.228,-5.228,-5.1738,-5.1892,-5.1863,-5.2026,-5.2028,-5.2134,-5.2163,-5.2197,-5.2217,-5.2341,-5.2408,-5.2396,-5.2405,-5.2478,-5.2549,-5.2542,-5.2574,-5.2649,-5.2628,-5.2316,-5.2271,-5.2228,-5.2188,-5.2657,-5.2658,-5.2954,-5.2957,-5.2959]},{"header":{"parameterUnit":"m.s-1","parameterCategory":1,"la1":30.2991,"la2":30.254,"lo1":-89.0895,"lo2":-89.0444,"dy":0.0017,"dx":0.0017,"nx":28,"ny":28,"refTime":"2024-10-17T21:00:00:Z","depth":0,"parameterNumber":3,"parameterNumberName":"V-component_of_WINDS"},"data":[0,0,0,0,0,0,0,0,0,0,0,0,0,0,0,0,0,0,0,0,0,0,0,0,0,0,0,0,0,0,0,0,0,0,0,0,0,0,0,0,0,0,0,0,0,0,0,0,0,0,0,0,0,0,0,0,0,0,-1.9189,-1.9188,0,-1.9169,-1.9169,-1.9168,-1.9167,-1.9167,-1.9167,-1.9168,-1.9146,-1.9145,-1.9144,0,0,0,0,0,0,0,0,0,0,0,0,0,-1.9222,-1.9222,-1.9189,-1.9188,-1.9188,-1.9169,-1.9169,-1.9168,-1.9167,-1.9167,-1.9167,-1.9168,-1.9146,-1.9145,-1.9144,0,0,0,0,0,0,0,0,0,0,0,0,0,-1.9206,-1.9222,-1.9189,-1.9185,-1.9185,-1.9169,-1.9169,-1.9168,-1.9167,-1.9167,-1.9168,-1.9168,-1.9146,-1.9145,-1.9144,-1.913,0,0,-1.914,-1.914,0,0,0,0,0,0,0,0,-1.9207,-1.9204,-1.9186,-1.9185,-1.9185,-1.9171,-1.9172,-1.9155,-1.9167,-1.9174,-1.9168,-1.9168,-1.9154,-1.9152,-1.9147,-1.9129,-1.9128,-1.914,-1.914,-1.9139,-1.9139,0,0,0,0,0,0,0,-1.9208,-1.9205,-1.9181,-1.9186,-1.9185,-1.9184,-1.9182,-1.9169,-1.9162,-1.9173,-1.9173,-1.9171,-1.9153,-1.9149,-1.9147,-1.9128,-1.914,-1.9139,-1.9139,-1.9138,-1.9094,-1.9093,0,0,0,0,0,0,-1.921,-1.9206,-1.9181,-1.918,-1.9197,-1.9183,-1.9181,-1.9175,-1.9162,-1.9161,-1.917,-1.9171,-1.915,-1.9148,-1.9146,-1.9127,-1.9139,-1.9138,-1.9137,-1.9094,-1.9094,-1.9093,0,0,0,0,0,0,-1.9211,-1.9208,-1.9182,-1.9193,-1.919,-1.9182,-1.9175,-1.9174,-1.9169,-1.916,-1.9159,-1.9167,-1.9151,-1.9148,-1.9133,-1.9126,-1.9137,-1.9136,-1.9095,-1.9094,-1.9093,-1.909,0,0,0,0,0,0,-1.9212,-1.9208,-1.9203,-1.9193,-1.9189,-1.9171,-1.9175,-1.9174,-1.9168,-1.9168,-1.9156,-1.9155,-1.9151,-1.9135,-1.9132,-1.9125,-1.9135,-1.9095,-1.9094,-1.9094,-1.9091,-1.9089,-1.9088,0,0,0,0,0,-1.9213,-1.9203,-1.9203,-1.92,-1.9183,-1.917,-1.9168,-1.9164,-1.9167,-1.9162,-1.9155,-1.9155,-1.9128,-1.9134,-1.913,-1.9123,-1.9096,-1.9095,-1.9094,-1.9091,-1.9089,-1.9088,0,0,0,0,0,0,-1.9213,-1.9202,-1.9202,-1.9189,-1.9181,-1.917,-1.9164,-1.9163,-1.9153,-1.9153,-1.9148,-1.9146,-1.9131,-1.9125,-1.9132,-1.9107,-1.9112,-1.911,-1.9111,-1.9109,-1.9108,-1.9109,-1.9134,0,0,0,0,0,-1.9212,-1.9203,-1.9193,-1.9183,-1.9179,-1.9172,-1.9166,-1.9163,-1.9154,-1.9151,-1.9143,-1.9134,-1.9123,-1.9116,-1.9106,-1.909,-1.9086,-1.9082,-1.9081,-1.908,-1.9078,-1.9067,-1.9065,-1.909,-1.909,-1.909,0,0,-1.9209,-1.9202,-1.9196,-1.9183,-1.9176,-1.9166,-1.9169,-1.9159,-1.915,-1.9149,-1.9135,-1.9129,-1.9118,-1.9102,-1.9095,-1.9097,-1.9071,-1.9079,-1.9078,-1.9077,-1.9066,-1.9064,-1.9062,-1.9089,-1.9089,-1.9089,0,0,-1.9198,-1.9192,-1.9182,-1.9175,-1.9164,-1.916,-1.9157,-1.9146,-1.9142,-1.9128,-1.9126,-1.9116,-1.9098,-1.9089,-1.9083,-1.9066,-1.9065,-1.9063,-1.9056,-1.9045,-1.9043,-1.9041,-1.9033,-1.9031,-1.9061,-1.9061,-1.9061,0,-1.9195,-1.9181,-1.9177,-1.9166,-1.9159,-1.9157,-1.9145,-1.9139,-1.9125,-1.912,-1.9123,-1.9098,-1.9091,-1.9072,-1.9068,-1.9063,-1.9059,-1.9064,-1.9044,-1.9042,-1.904,-1.9033,-1.903,-1.9061,-1.9061,-1.9061,-1.9061,0,-1.9177,-1.9167,-1.9159,-1.9146,-1.9139,-1.9128,-1.9121,-1.9113,-1.9111,-1.9105,-1.9089,-1.908,-1.9066,-1.9062,-1.906,-1.9042,-1.9043,-1.9045,-1.905,-1.9037,-1.903,-1.9028,-1.9061,-1.9061,-1.9061,-1.9061,0,0,-1.9167,-1.915,-1.9148,-1.9141,-1.9128,-1.912,-1.9107,-1.9095,-1.9087,-1.9078,-1.9066,-1.905,-1.905,-1.9043,-1.9039,-1.903,-1.9015,-1.9032,-1.9032,-1.9028,-1.8992,-1.8991,-1.8988,-1.9014,-1.9014,-1.9013,-1.8993,0,-1.9154,-1.9133,-1.9128,-1.9109,-1.9099,-1.9096,-1.9085,-1.9075,-1.9069,-1.9058,-1.9051,-1.9038,-1.9041,-1.9036,-1.9027,-1.9019,-1.9007,-1.902,-1.9002,-1.9001,-1.9004,-1.8984,-1.8983,-1.8964,-1.899,-1.899,-1.8989,0,-1.9136,-1.9125,-1.9106,-1.9093,-1.9088,-1.9079,-1.9065,-1.9055,-1.9043,-1.9039,-1.9029,-1.9026,-1.9012,-1.9017,-1.8996,-1.9005,-1.8996,-1.8991,-1.899,-1.8988,-1.8994,-1.898,-1.8958,-1.8955,-1.8985,-1.8986,-1.8986,0,-1.9129,-1.911,-1.9095,-1.9089,-1.9074,-1.9067,-1.906,-1.9049,-1.904,-1.9028,-1.9022,-1.9009,-1.9001,-1.8989,-1.8982,-1.8987,-1.896,-1.8966,-1.8955,-1.8955,-1.8949,-1.895,-1.8925,-1.8946,-1.8946,-1.8946,-1.8946,0,-1.9114,-1.9102,-1.9091,-1.9082,-1.9068,-1.9061,-1.9047,-1.904,-1.9029,-1.9017,-1.9014,-1.9002,-1.8993,-1.898,-1.8974,-1.8956,-1.8953,-1.8948,-1.8946,-1.8948,-1.8948,-1.8942,-1.8943,-1.8945,-1.8945,-1.8945,-1.8946,0,-1.9104,-1.9097,-1.908,-1.9066,-1.9063,-1.9052,-1.904,-1.903,-1.9023,-1.9008,-1.9004,-1.8993,-1.8977,-1.8968,-1.8949,-1.8944,-1.8924,-1.8923,-1.8928,-1.8927,-1.8916,-1.8917,-1.8886,-1.888,-1.8906,-1.8906,-1.8906,0,-1.9095,-1.9085,-1.907,-1.9062,-1.9055,-1.9043,-1.9034,-1.9026,-1.9017,-1.9001,-1.8993,-1.8977,-1.8964,-1.8938,-1.8928,-1.8912,-1.891,-1.89,-1.8908,-1.8909,-1.8908,-1.8908,-1.8906,-1.8899,-1.8899,-1.8898,-1.8898,0,-1.9079,-1.9075,-1.9064,-1.9049,-1.9039,-1.9027,-1.9016,-1.9009,-1.8999,-1.8989,-1.8973,-1.8962,-1.8941,-1.8925,-1.8908,-1.8899,-1.8896,-1.8896,-1.8892,-1.8893,-1.8896,-1.8892,-1.8923,-1.8897,-1.8897,-1.8897,-1.8897,-1.8897,-1.9068,-1.9059,-1.9046,-1.9032,-1.9023,-1.9011,-1.9001,-1.8992,-1.8979,-1.8961,-1.8957,-1.894,-1.8925,-1.8902,-1.8893,-1.8878,-1.8879,-1.8875,-1.8873,-1.8872,-1.887,-1.8899,-1.8875,-1.8875,-1.8875,-1.8875,-1.8875,0,-1.9051,-1.9043,-1.903,-1.9013,-1.9002,-1.9,-1.8987,-1.8977,-1.8962,-1.8949,-1.8935,-1.8915,-1.8898,-1.8886,-1.8868,-1.8858,-1.8856,-1.8854,-1.8854,-1.8851,-1.8871,-1.8875,-1.8855,-1.8855,-1.8855,-1.8855,-1.8855,-1.8855,-1.9041,-1.9024,-1.9019,-1.8996,-1.8987,-1.897,-1.8962,-1.8951,-1.894,-1.8918,-1.8905,-1.8896,-1.8883,-1.8863,-1.8847,-1.8844,-1.8837,-1.8834,-1.883,-1.8848,-1.885,-1.8852,-1.8856,-1.8833,-1.8833,-1.8812,-1.8811,-1.8811]}]]